TimeEST,TemperatureF,Dew PointF,Humidity,Sea Level PressureIn,VisibilityMPH,Wind Direction,Wind SpeedMPH,Gust SpeedMPH,PrecipitationIn,Events,Conditions,WindDirDegrees,DateUTC
12:15 AM,28.4,24.8,86,30.30,10.0,Calm,Calm,-,N/A,,Clear,0,2013-01-09 05:15:00
12:35 AM,28.4,24.8,86,30.29,10.0,Calm,Calm,-,N/A,,Clear,0,2013-01-09 05:35:00
12:55 AM,28.4,24.8,86,30.28,10.0,Calm,Calm,-,N/A,,Clear,0,2013-01-09 05:55:00
1:15 AM,28.4,24.8,86,30.28,10.0,Calm,Calm,-,N/A,,Clear,0,2013-01-09 06:15:00
1:35 AM,28.4,24.8,86,30.28,10.0,Calm,Calm,-,N/A,,Clear,0,2013-01-09 06:35:00
1:55 AM,28.4,24.8,86,30.29,10.0,Calm,Calm,-,N/A,,Clear,0,2013-01-09 06:55:00
2:15 AM,28.4,26.6,93,30.29,10.0,Calm,Calm,-,N/A,,Clear,0,2013-01-09 07:15:00
2:35 AM,28.4,26.6,93,30.29,10.0,Calm,Calm,-,N/A,,Clear,0,2013-01-09 07:35:00
2:55 AM,28.4,26.6,93,30.29,10.0,Calm,Calm,-,N/A,,Clear,0,2013-01-09 07:55:00
3:15 AM,28.4,26.6,93,30.30,10.0,Calm,Calm,-,N/A,,Clear,0,2013-01-09 08:15:00
3:35 AM,28.4,26.6,93,30.29,10.0,Calm,Calm,-,N/A,,Clear,0,2013-01-09 08:35:00
3:55 AM,28.4,26.6,93,30.29,10.0,Calm,Calm,-,N/A,,Clear,0,2013-01-09 08:55:00
4:15 AM,28.4,26.6,93,30.29,10.0,Calm,Calm,-,N/A,,Clear,0,2013-01-09 09:15:00
4:35 AM,30.2,26.6,86,30.29,10.0,Calm,Calm,-,N/A,,Clear,0,2013-01-09 09:35:00
4:55 AM,30.2,26.6,86,30.29,10.0,Calm,Calm,-,N/A,,Clear,0,2013-01-09 09:55:00
5:15 AM,30.2,26.6,86,30.28,10.0,Calm,Calm,-,N/A,,Clear,0,2013-01-09 10:15:00
5:35 AM,30.2,26.6,86,30.29,10.0,Calm,Calm,-,N/A,,Clear,0,2013-01-09 10:35:00
5:55 AM,30.2,26.6,86,30.29,10.0,Calm,Calm,-,N/A,,Clear,0,2013-01-09 10:55:00
6:15 AM,30.2,28.4,93,30.31,10.0,Calm,Calm,-,N/A,,Scattered Clouds,0,2013-01-09 11:15:00
6:35 AM,32.0,28.4,87,30.31,10.0,Calm,Calm,-,N/A,,Mostly Cloudy,0,2013-01-09 11:35:00
6:55 AM,32.0,28.4,87,30.30,10.0,Calm,Calm,-,N/A,,Scattered Clouds,0,2013-01-09 11:55:00
7:15 AM,32.0,30.2,93,30.32,10.0,Calm,Calm,-,N/A,,Scattered Clouds,0,2013-01-09 12:15:00
7:35 AM,32.0,30.2,93,30.32,10.0,Calm,Calm,-,N/A,,Scattered Clouds,0,2013-01-09 12:35:00
7:55 AM,32.0,30.2,93,30.33,10.0,Calm,Calm,-,N/A,,Scattered Clouds,0,2013-01-09 12:55:00
8:15 AM,32.0,30.2,93,30.34,10.0,Calm,Calm,-,N/A,,Scattered Clouds,0,2013-01-09 13:15:00
8:35 AM,33.8,30.2,87,30.34,10.0,Calm,Calm,-,N/A,,Scattered Clouds,0,2013-01-09 13:35:00
3:55 PM,51.8,42.8,71,30.37,-9999.0,WSW,4.6,-,N/A,,Unknown,240,2013-01-09 20:55:00
4:15 PM,50.0,42.8,76,30.37,10.0,WSW,6.9,-,N/A,,Scattered Clouds,240,2013-01-09 21:15:00
4:35 PM,48.2,42.8,82,30.38,10.0,WSW,4.6,-,N/A,,Clear,240,2013-01-09 21:35:00
4:55 PM,46.4,41.0,81,30.39,10.0,WSW,4.6,-,N/A,,Clear,240,2013-01-09 21:55:00
5:15 PM,44.6,41.0,87,30.40,10.0,SW,3.5,-,N/A,,Clear,230,2013-01-09 22:15:00
5:35 PM,41.0,37.4,87,30.40,10.0,Calm,Calm,-,N/A,,Clear,0,2013-01-09 22:35:00
5:55 PM,41.0,37.4,87,30.41,10.0,Calm,Calm,-,N/A,,Clear,0,2013-01-09 22:55:00
6:15 PM,41.0,37.4,87,30.42,10.0,Calm,Calm,-,N/A,,Clear,0,2013-01-09 23:15:00
6:35 PM,37.4,37.4,100,30.43,7.0,Calm,Calm,-,N/A,,Clear,0,2013-01-09 23:35:00
6:55 PM,37.4,35.6,93,30.44,1.2,Calm,Calm,-,N/A,,Mist,0,2013-01-09 23:55:00
7:15 PM,37.4,35.6,93,30.44,1.5,Calm,Calm,-,N/A,,Mist,0,2013-01-10 00:15:00
7:35 PM,35.6,33.8,93,30.46,4.0,Calm,Calm,-,N/A,,Clear,0,2013-01-10 00:35:00
7:55 PM,35.6,33.8,93,30.46,1.8,Calm,Calm,-,N/A,,Mist,0,2013-01-10 00:55:00
8:15 PM,35.6,33.8,93,30.47,0.8,Calm,Calm,-,N/A,,Mist,0,2013-01-10 01:15:00
8:35 PM,33.8,32.0,93,30.48,0.5,Calm,Calm,-,N/A,Fog,Fog,0,2013-01-10 01:35:00
8:55 PM,33.8,32.0,93,30.49,0.5,Calm,Calm,-,N/A,Fog,Fog,0,2013-01-10 01:55:00
9:15 PM,32.0,32.0,100,30.50,0.8,Calm,Calm,-,N/A,,Overcast,0,2013-01-10 02:15:00
9:35 PM,32.0,32.0,100,30.51,0.2,Calm,Calm,-,N/A,Fog,Fog,0,2013-01-10 02:35:00
9:55 PM,32.0,32.0,100,30.51,0.5,Calm,Calm,-,N/A,Fog,Fog,0,2013-01-10 02:55:00
10:15 PM,32.0,32.0,100,30.52,0.2,Calm,Calm,-,N/A,Fog,Fog,0,2013-01-10 03:15:00
10:35 PM,32.0,32.0,100,30.52,0.2,Calm,Calm,-,N/A,Fog,Fog,0,2013-01-10 03:35:00
10:55 PM,32.0,32.0,100,30.53,0.2,Calm,Calm,-,N/A,Fog,Light Freezing Fog,0,2013-01-10 03:55:00
11:15 PM,32.0,30.2,93,30.53,0.5,Calm,Calm,-,N/A,Fog,Light Freezing Fog,0,2013-01-10 04:15:00
11:35 PM,30.2,30.2,100,30.53,0.2,Calm,Calm,-,N/A,Fog,Light Freezing Fog,0,2013-01-10 04:35:00
11:55 PM,30.2,30.2,100,30.54,0.5,Calm,Calm,-,N/A,Fog,Light Freezing Fog,0,2013-01-10 04:55:00